Tracking 19245 objects as of 18-Aug-2018
HD Live streaming from Space Station
objects crossing your sky now

AYAME 1 (ECS 1)

Track AYAME 1 (ECS 1) now!
AYAME 1 (ECS 1) is classified as:


NORAD ID: 11261
Int'l Code: 1979-009A
Perigee: 12,476.8 km
Apogee: 34,424.6 km
Inclination: 8.6 °
Period: 854.2 minutes
Semi major axis: 29821 km
RCS: 0.2528 m2 (medium)
Launch date: February 6, 1979
Source: Japan (JPN)
Launch site: TANEGASHIMA SPACE CENTER (TNSTA)
aabbcc
Your satellite tracking list
Your tracking list is empty




NASA's NSSDC Master Catalog

Two Line Element Set (TLE):
1 11261U 79009A   18228.48108885 -.00000119 +00000-0 +00000-0 0  9991
2 11261 008.6435 099.0583 3679837 175.6530 125.4746 01.68579129127909
Source of the keplerian elements: AFSPC